Location: Home
(42.5358°N, 72.7383°W)
Time: 11:37:25
(UTC-05:00)

Tiros 1 - Pass Details

Date: 05 December 2021
Orbit: 629 x 664 km, 48.4° (Epoch: 26 January)

Event Time Altitude Azimuth Distance (km) Brightness Sun altitude
Rises 01:28:12 0° 283° (WNW) 2,968 - -60.1°
Reaches altitude 10° 01:31:48 10° 255° (WSW) 2,060 - -59.5°
Maximum altitude 01:33:52 13° 229° (SW) 1,881 - -59.2°
Drops below altitude 10° 01:35:56 10° 203° (SSW) 2,062 - -58.9°
Sets 01:39:33 0° 175° (S) 2,974 - -58.3°
